Date String (YYYY-MM-DD hh:mm:ss) UTC,Instrument flags,Ambient pressure (hPa),Sample flow (lpm),Bypass flow (lpm),Sample temperature (°C),Ambient temperature (°C),ASC tube jacket temperature (°C),LED temperature (°C),Box temperature (°C),Sample RH (%),Span deviation,Mass concentration (μg/m³),Mass concentration (μg/m³),Mass concentration (μg/m³)
DateTimeUTC,F1_M11,P_M11,Q1_M11,Q2_M11,T1_M11,T2_M11,T3_M11,T4_M11,T5_M11,U1_M11,ZSPAN_M11,X0_M11,X2_M11,X1_M11
2022-10-24 08:00:00,,0817.1,5.00,0.00,23.8,22.0,00.0,32.8,25.5,08.9,0000.0,0011.38,0001.94,0001.69
2022-10-24 08:01:00,,0817.1,5.00,0.00,23.8,22.0,00.0,32.8,25.5,08.9,0000.0,0010.64,0001.90,0001.68
2022-10-24 08:02:00,,0817.1,5.00,0.00,23.8,22.0,00.0,32.8,25.5,08.9,0000.0,0011.01,0001.93,0001.67
2022-10-24 08:03:00,,0817.1,5.00,0.00,23.8,22.0,00.0,32.8,25.5,08.9,0000.0,0011.01,0001.91,0001.67
2022-10-24 08:04:00,,0817.1,5.00,0.00,23.7,21.9,00.0,32.8,25.5,09.1,0000.0,0010.99,0001.90,0001.67
2022-10-24 08:05:00,,0817.1,5.00,0.00,23.7,21.9,00.0,32.7,25.5,09.4,0000.0,0011.00,0001.91,0001.66
2022-10-24 08:06:00,,0817.1,5.00,0.00,23.7,21.9,00.0,32.7,25.5,09.3,0000.0,0008.08,0001.87,0001.64
2022-10-24 08:07:00,,0817.1,5.00,0.00,23.7,21.9,00.0,32.7,25.5,09.0,0000.0,0005.75,0001.83,0001.62
2022-10-24 08:08:00,,0817.1,5.00,0.00,23.7,21.9,00.0,32.7,25.4,09.1,0000.0,0005.26,0001.80,0001.60
2022-10-24 08:09:00,,0817.0,5.00,0.00,23.7,21.9,00.0,32.7,25.4,08.9,0000.0,0004.41,0001.77,0001.57
2022-10-24 08:10:00,,0817.0,5.00,0.00,23.7,21.9,00.0,32.7,25.4,08.7,0000.0,0004.35,0001.74,0001.55
2022-10-24 08:11:00,,0817.0,5.00,0.00,23.7,21.9,00.0,32.7,25.4,08.6,0000.0,0004.23,0001.71,0001.52
2022-10-24 08:12:00,,0817.1,5.00,0.00,23.6,21.9,00.0,32.6,25.4,08.9,0000.0,0003.29,0001.68,0001.51
2022-10-24 08:13:00,,0817.1,5.00,0.00,23.6,21.9,00.0,32.6,25.4,09.0,0000.0,0002.98,0001.64,0001.49
2022-10-24 08:14:00,,0817.1,5.01,0.00,23.6,21.9,00.0,32.6,25.4,09.0,0000.0,0004.23,0001.62,0001.47
2022-10-24 08:15:00,,0817.0,5.00,0.00,23.6,21.9,00.0,32.6,25.4,08.9,0000.0,0004.22,0001.60,0001.45
2022-10-24 08:16:00,,0817.1,5.01,0.00,23.6,21.9,00.0,32.6,25.4,08.9,0000.0,0004.17,0001.57,0001.44
2022-10-24 08:17:00,,0817.1,5.00,0.00,23.6,21.8,00.0,32.6,25.4,09.0,0000.0,0004.20,0001.58,0001.45
2022-10-24 08:18:00,,0817.1,5.01,0.00,23.6,21.8,00.0,32.6,25.2,09.0,0000.0,0004.19,0001.57,0001.45
2022-10-24 08:19:00,,0817.2,5.00,0.00,23.6,21.8,00.0,32.6,25.2,09.0,0000.0,0004.14,0001.56,0001.45
2022-10-24 08:20:00,,0817.1,5.00,0.00,23.5,21.7,00.0,32.5,25.2,09.0,0000.0,0004.18,0001.58,0001.45
2022-10-24 08:21:00,,0817.2,5.00,0.00,23.5,21.7,00.0,32.5,25.3,08.9,0000.0,0004.20,0001.60,0001.45
2022-10-24 08:22:00,,0817.2,5.00,0.00,23.5,21.6,00.0,32.5,25.2,09.0,0000.0,0004.25,0001.63,0001.45
2022-10-24 08:23:00,,0817.4,5.00,0.00,23.4,21.5,00.0,32.5,25.2,09.0,0000.0,0004.43,0001.66,0001.46
2022-10-24 08:24:00,,0817.4,5.00,0.00,23.4,21.3,00.0,32.4,25.1,09.2,0000.0,0004.40,0001.67,0001.47
2022-10-24 08:25:00,,0817.4,5.00,0.00,23.3,21.3,00.0,32.4,25.0,09.1,0000.0,0003.32,0001.68,0001.47
2022-10-24 08:26:00,,0817.5,5.00,0.00,23.3,21.4,00.0,32.4,25.1,09.2,0000.0,0004.51,0001.69,0001.46
2022-10-24 08:27:00,,0817.5,5.00,0.00,23.3,21.4,00.0,32.3,25.0,09.2,0000.0,0005.31,0001.71,0001.46
2022-10-24 08:28:00,,0817.5,5.01,0.00,23.2,21.4,00.0,32.3,25.0,09.2,0000.0,0005.38,0001.71,0001.46
2022-10-24 08:29:00,,0817.5,5.01,0.00,23.3,21.5,00.0,32.3,25.1,09.2,0000.0,0005.42,0001.71,0001.47
2022-10-24 08:30:00,,0817.6,5.01,0.00,23.3,21.6,00.0,32.3,25.0,09.1,0000.0,0005.42,0001.73,0001.47
2022-10-24 08:31:00,,0817.6,4.98,0.00,23.3,21.6,00.0,32.3,25.0,09.1,0000.0,0005.29,0001.73,0001.47
2022-10-24 08:32:00,,0817.6,5.00,0.00,23.2,21.6,00.0,32.2,25.0,09.1,0000.0,0005.31,0001.73,0001.47
2022-10-24 08:33:00,,0817.5,5.01,0.00,23.2,21.6,00.0,32.2,25.0,09.0,0000.0,0005.29,0001.71,0001.46
2022-10-24 08:34:00,,0817.6,5.00,0.00,23.2,21.6,00.0,32.2,25.0,09.0,0000.0,0005.22,0001.69,0001.47
2022-10-24 08:35:00,,0817.6,5.01,0.00,23.2,21.5,00.0,32.2,24.9,08.8,0000.0,0004.92,0001.66,0001.47
2022-10-24 08:36:00,,0817.6,5.00,0.00,23.2,21.5,00.0,32.2,24.9,09.0,0000.0,0004.66,0001.66,0001.48
2022-10-24 08:37:00,,0817.6,5.00,0.00,23.2,21.5,00.0,32.2,24.9,09.0,0000.0,0003.32,0001.65,0001.50
2022-10-24 08:38:00,,0817.6,5.00,0.00,23.1,21.5,00.0,32.1,24.9,09.0,0000.0,0002.38,0001.67,0001.52
2022-10-24 08:39:00,,0817.7,5.00,0.00,23.1,21.4,00.0,32.1,24.8,09.0,0000.0,0002.33,0001.68,0001.55
2022-10-24 08:40:00,,0817.6,5.00,0.00,23.0,21.3,00.0,32.1,24.8,09.0,0000.0,0002.30,0001.70,0001.57
2022-10-24 08:41:00,,0817.6,5.00,0.00,23.0,21.1,00.0,32.1,24.7,09.0,0000.0,0002.36,0001.71,0001.58
2022-10-24 08:42:00,,0817.6,5.00,0.00,22.9,21.0,00.0,32.0,24.7,09.1,0000.0,0002.34,0001.71,0001.60
2022-10-24 08:43:00,,0817.6,4.99,0.00,22.9,21.0,00.0,32.0,24.6,09.0,0000.0,0002.37,0001.71,0001.62
2022-10-24 08:44:00,,0817.6,5.00,0.00,22.9,20.9,00.0,32.0,24.6,08.9,0000.0,0002.39,0001.74,0001.64
2022-10-24 08:45:00,,0817.6,4.99,0.00,22.8,20.8,00.0,31.9,24.5,09.0,0000.0,0002.40,0001.75,0001.65
2022-10-24 08:46:00,,0817.5,5.02,0.00,22.8,20.8,00.0,31.9,24.5,09.1,0000.0,0002.45,0001.77,0001.67
2022-10-24 08:47:00,,0817.5,5.00,0.00,22.7,20.7,00.0,31.9,24.4,09.1,0000.0,0002.58,0001.82,0001.67
2022-10-24 08:48:00,,0817.5,5.00,0.00,22.7,20.7,00.0,31.8,24.4,09.1,0000.0,0002.60,0001.83,0001.68
2022-10-24 08:49:00,,0817.4,5.00,0.00,22.7,20.7,00.0,31.8,24.3,09.2,0000.0,0002.61,0001.83,0001.66
2022-10-24 08:50:00,,0817.4,5.00,0.00,22.6,20.7,00.0,31.8,24.3,09.0,0000.0,0003.71,0001.85,0001.66
2022-10-24 08:51:00,,0817.4,5.00,0.00,22.6,20.7,00.0,31.7,24.2,09.0,0000.0,0003.93,0001.85,0001.64
2022-10-24 08:52:00,,0817.4,5.00,0.00,22.5,20.6,00.0,31.7,24.2,09.1,0000.0,0003.81,0001.82,0001.64
2022-10-24 08:53:00,,0817.5,5.00,0.00,22.5,20.5,00.0,31.6,24.1,09.1,0000.0,0003.79,0001.81,0001.63
2022-10-24 08:54:00,,0817.4,5.00,0.00,22.4,20.4,00.0,31.6,24.1,09.1,0000.0,0003.73,0001.82,0001.63
2022-10-24 08:55:00,,0817.4,5.00,0.00,22.4,20.4,00.0,31.6,24.1,09.1,0000.0,0003.76,0001.82,0001.62
2022-10-24 08:56:00,,0817.4,5.00,0.00,22.4,20.4,00.0,31.5,24.1,09.0,0000.0,0003.98,0001.86,0001.62
2022-10-24 08:57:00,,0817.3,4.99,0.00,22.3,20.3,00.0,31.5,24.0,09.1,0000.0,0004.02,0001.87,0001.63
2022-10-24 08:58:00,,0817.3,5.02,0.00,22.3,20.3,00.0,31.5,24.0,09.3,0000.0,0003.93,0001.83,0001.63
2022-10-24 08:59:00,,0817.3,4.99,0.00,22.3,20.3,00.0,31.4,23.9,09.4,0000.0,0003.93,0001.83,0001.62
